Glencoe, MN

9:50 AM CST on December 14, 2019 (GMT -0600)
Glencoe Municipal

Weather History for KGYL - October, 2019

Change the Weather History Date:

Tuesday, October 15, 2019

  Actual Average (WUND) Record (WUND)
Temperature  
Mean Temperature 44 °F -  
Max Temperature 50 °F - - (-1)
Min Temperature 38 °F - - (-1)
Degree Days  
Heating Degree Days 21    
Moisture  
Dew Point 39 °F    
Average Humidity 79    
Maximum Humidity 100    
Minimum Humidity 64    
Precipitation  
Precipitation 0.02 in - - ()
Sea Level Pressure  
Sea Level Pressure 29.88 in    
Wind  
Wind Speed 8 mph (NW)    
Max Wind Speed 16 mph    
Max Gust Speed 22 mph    
Visibility 10 miles    
Events Rain , Thunderstorm    
Averages and records for this station are not official NWS values.
T = Trace of Precipitation, MM = Missing Value Source: NWS Daily Summary

Daily Weather History Graph

Daily Weather History Graph

Search for Another Location

Airport or City:

Astronomy

Oct. 15, 2019 Rise Set
Actual Time 7:31 AM CDT 6:31 PM CDT
Civil Twilight 7:02 AM CDT 7:01 PM CDT
Nautical Twilight 6:28 AM CDT 7:35 PM CDT
Astronomical Twilight 5:54 AM CDT 8:09 PM CDT
Moon 7:49 PM CDT (10/15) 9:04 AM CDT (10/15)
Length of Visible Light 11h 59m
Length of Day
11h 00m
Full, 97% of the Moon is Illuminated
Oct 15
Full
Oct 21
Last Quarter
Oct 27
New
Nov 4
First Quarter
Nov 12
Full

Hourly Weather History & Observations

Time (CDT) Temp. Windchill Dew Point Humidity Pressure Visibility Wind Dir Wind Speed Gust Speed Precip Events Conditions
12:16 AM 44.1 °F 40.1 °F 37.0 °F 76% 29.83 in 10.0 mi East 6.9 mph - N/A   Mostly Cloudy
12:35 AM 43.9 °F 39.9 °F 37.4 °F 78% 29.82 in 10.0 mi East 6.9 mph - N/A   Mostly Cloudy
12:36 AM 44.1 °F 40.1 °F 37.4 °F 77% 29.82 in 10.0 mi East 6.9 mph - N/A   Mostly Cloudy
12:58 AM 45.0 °F 40.6 °F 37.4 °F 75% 29.80 in 10.0 mi East 8.1 mph - N/A   Mostly Cloudy
1:15 AM 45.7 °F 40.2 °F 37.4 °F 73% 29.78 in 10.0 mi East 11.5 mph - N/A   Overcast
1:35 AM 44.6 °F 42.2 °F 39.6 °F 82% 29.78 in 10.0 mi ENE 4.6 mph - 0.02 in   Overcast
1:40 AM 44.8 °F 43.3 °F 39.6 °F 82% 29.78 in 10.0 mi ENE 3.5 mph - 0.02 in   Overcast
1:58 AM 44.6 °F 39.7 °F 40.1 °F 84% 29.80 in 10.0 mi North 9.2 mph - 0.02 in   Overcast
2:15 AM 45.3 °F 41.1 °F 39.7 °F 81% 29.81 in 10.0 mi North 8.1 mph - N/A   Light Drizzle
2:35 AM 47.3 °F - 39.4 °F 74% 29.79 in 10.0 mi East 5.8 mph - N/A   Overcast
2:36 AM 47.3 °F - 39.6 °F 74% 29.79 in 10.0 mi East 6.9 mph - N/A   Overcast
2:55 AM 46.6 °F - 39.6 °F 77% 29.77 in 10.0 mi ESE 10.4 mph - N/A   Overcast
2:56 AM 46.6 °F - 39.6 °F 77% 29.77 in 10.0 mi ESE 9.2 mph - N/A   Overcast
3:18 AM 45.7 °F 41.0 °F 38.7 °F 76% 29.75 in 10.0 mi ESE 9.2 mph - N/A Thunderstorm Scattered Clouds
3:35 AM 45.0 °F 41.8 °F 38.8 °F 79% 29.74 in 10.0 mi East 5.8 mph - N/A   Clear
3:36 AM 44.8 °F 41.0 °F 38.8 °F 80% 29.74 in 10.0 mi East 6.9 mph - N/A   Clear
3:55 AM 43.7 °F - 38.7 °F 82% 29.74 in 10.0 mi Calm Calm - N/A   Clear
3:59 AM 43.9 °F - 38.8 °F 82% 29.75 in 10.0 mi Calm Calm - N/A   Clear
4:17 AM 43.0 °F - 38.5 °F 84% 29.75 in 10.0 mi Calm Calm - N/A   Clear
4:35 AM 40.6 °F - 40.3 °F 99% 29.75 in 10.0 mi Calm Calm - N/A   Clear
4:36 AM 40.6 °F - 40.3 °F 99% 29.75 in 10.0 mi Calm Calm - N/A   Clear
4:55 AM 40.1 °F 36.1 °F 40.3 °F 100% 29.75 in 10.0 mi North 5.8 mph - N/A   Clear
5:18 AM 39.2 °F 35.9 °F 39.4 °F 100% 29.75 in 10.0 mi NNW 4.6 mph - N/A   Clear
5:35 AM 38.8 °F 34.6 °F 39.0 °F 100% 29.75 in 10.0 mi North 5.8 mph - N/A   Clear
5:55 AM 39.2 °F 35.0 °F 39.4 °F 100% 29.77 in 10.0 mi NNW 5.8 mph - N/A   Clear
5:56 AM 39.2 °F 35.0 °F 39.4 °F 100% 29.77 in 10.0 mi NNW 5.8 mph - N/A   Clear
6:17 AM 38.7 °F 34.3 °F 38.8 °F 100% 29.76 in 10.0 mi NNW 5.8 mph - N/A   Clear
6:35 AM 38.7 °F 34.3 °F 38.8 °F 100% 29.77 in 7.0 mi NW 5.8 mph - N/A   Scattered Clouds
6:36 AM 38.8 °F 33.8 °F 38.8 °F 100% 29.77 in 7.0 mi NW 6.9 mph - N/A   Scattered Clouds
6:55 AM 39.2 °F 37.0 °F 39.2 °F 100% 29.77 in 7.0 mi NNW 3.5 mph - N/A   Scattered Clouds
6:56 AM 39.2 °F 37.0 °F 39.2 °F 100% 29.77 in 7.0 mi NNW 3.5 mph - N/A   Scattered Clouds
7:59 AM - - - N/A% 29.79 in 10.0 mi WNW 6.9 mph - N/A   Overcast
8:15 AM 40.5 °F 35.1 °F 40.6 °F 100% 29.79 in 10.0 mi WNW 8.1 mph - N/A   Mostly Cloudy
8:38 AM 40.5 °F 36.5 °F 40.6 °F 100% 29.79 in 10.0 mi WNW 5.8 mph - N/A   Clear
8:56 AM 40.5 °F 36.5 °F 40.6 °F 100% 29.79 in 10.0 mi WNW 5.8 mph - N/A   Clear
9:15 AM 41.0 °F 35.8 °F 41.2 °F 100% 29.80 in 10.0 mi NW 8.1 mph - N/A   Clear
9:16 AM 41.4 °F 36.2 °F 41.4 °F 100% 29.80 in 10.0 mi NW 8.1 mph - N/A   Clear
9:38 AM 43.0 °F 36.4 °F 41.9 °F 96% 29.81 in 10.0 mi WNW 12.7 mph - N/A   Mostly Cloudy
9:55 AM 44.4 °F 38.6 °F 41.0 °F 88% 29.81 in 10.0 mi WNW 11.5 mph 16.1 mph N/A   Scattered Clouds
10:15 AM 44.8 °F 38.3 °F 39.2 °F 81% 29.81 in 10.0 mi WNW 13.8 mph 17.3 mph N/A   Scattered Clouds
10:16 AM 45.0 °F 38.9 °F 39.2 °F 80% 29.82 in 10.0 mi WNW 12.7 mph 17.3 mph N/A   Scattered Clouds
10:35 AM 46.4 °F 40.7 °F 39.4 °F 77% 29.82 in 10.0 mi WNW 12.7 mph - N/A   Clear
10:58 AM 47.8 °F - 38.7 °F 70% 29.83 in 10.0 mi NW 12.7 mph - N/A   Clear
11:15 AM 49.5 °F - 39.0 °F 67% 29.83 in 10.0 mi NW 12.7 mph 20.7 mph N/A   Scattered Clouds
11:16 AM 49.6 °F - 39.0 °F 67% 29.83 in 10.0 mi NW 13.8 mph 20.7 mph N/A   Scattered Clouds
11:35 AM 49.3 °F - 38.8 °F 67% 29.84 in 10.0 mi WNW 16.1 mph - N/A   Mostly Cloudy
11:36 AM 49.3 °F - 38.8 °F 67% 29.84 in 10.0 mi WNW 15.0 mph 18.4 mph N/A   Mostly Cloudy
11:58 AM 49.8 °F - 38.7 °F 65% 29.85 in 10.0 mi WNW 11.5 mph 18.4 mph N/A   Mostly Cloudy
12:15 PM 49.6 °F - 39.0 °F 67% 29.85 in 10.0 mi WNW 12.7 mph 17.3 mph N/A   Overcast
12:35 PM 49.5 °F - 38.7 °F 66% 29.85 in 10.0 mi WNW 10.4 mph 17.3 mph N/A   Overcast
12:36 PM 49.3 °F - 38.8 °F 67% 29.86 in 10.0 mi WNW 11.5 mph 17.3 mph N/A   Overcast
12:59 PM 48.2 °F - 39.4 °F 72% 29.86 in 10.0 mi WNW 12.7 mph 18.4 mph N/A Rain Light Rain
1:16 PM 47.8 °F - 39.2 °F 72% 29.86 in 10.0 mi WNW 13.8 mph 20.7 mph N/A   Overcast
1:35 PM 48.9 °F - 38.8 °F 68% 29.87 in 10.0 mi WNW 11.5 mph - N/A   Overcast
1:36 PM 48.9 °F - 38.7 °F 68% 29.87 in 10.0 mi WNW 11.5 mph - N/A   Overcast
1:55 PM 50.2 °F - 38.3 °F 64% 29.87 in 10.0 mi WNW 11.5 mph 21.9 mph N/A   Overcast
2:18 PM 49.5 °F - 39.4 °F 68% 29.88 in 10.0 mi WNW 15.0 mph 19.6 mph N/A   Mostly Cloudy
2:35 PM 48.6 °F - 39.2 °F 70% 29.88 in 10.0 mi WNW 15.0 mph 19.6 mph N/A   Mostly Cloudy
2:55 PM 48.2 °F - 39.6 °F 72% 29.89 in 10.0 mi WNW 12.7 mph 18.4 mph N/A   Overcast
2:56 PM 48.2 °F - 39.6 °F 72% 29.89 in 10.0 mi WNW 13.8 mph 18.4 mph N/A   Overcast
3:18 PM 47.5 °F - 39.4 °F 73% 29.90 in 10.0 mi WNW 13.8 mph 20.7 mph N/A   Overcast
3:35 PM 48.2 °F - 39.6 °F 72% 29.91 in 10.0 mi WNW 11.5 mph - N/A   Overcast
3:55 PM 48.2 °F - 39.9 °F 73% 29.92 in 10.0 mi WNW 13.8 mph 21.9 mph N/A   Overcast
4:15 PM 46.9 °F - 39.4 °F 75% 29.92 in 10.0 mi WNW 16.1 mph 21.9 mph N/A   Overcast
4:19 PM 46.8 °F - 39.2 °F 75% 29.93 in 10.0 mi WNW 11.5 mph 21.9 mph N/A   Overcast
4:36 PM 46.9 °F - 39.4 °F 75% 29.93 in 10.0 mi WNW 10.4 mph 19.6 mph N/A   Overcast
4:55 PM 47.3 °F - 38.7 °F 72% 29.94 in 10.0 mi WNW 9.2 mph 19.6 mph N/A   Overcast
5:15 PM 47.3 °F - 38.8 °F 72% 29.95 in 10.0 mi WNW 12.7 mph 20.7 mph N/A   Overcast
5:20 PM 46.9 °F - 38.8 °F 73% 29.95 in 10.0 mi WNW 13.8 mph 20.7 mph N/A   Overcast
5:38 PM 46.9 °F - 39.2 °F 74% 29.96 in 10.0 mi WNW 9.2 mph 17.3 mph N/A   Overcast
5:56 PM 46.8 °F - 39.4 °F 75% 29.97 in 10.0 mi WNW 15.0 mph 19.6 mph N/A   Overcast
6:15 PM 46.4 °F 40.4 °F 39.4 °F 77% 29.97 in 10.0 mi WNW 13.8 mph 19.6 mph N/A   Overcast
6:16 PM 46.4 °F 40.7 °F 39.4 °F 77% 29.97 in 10.0 mi WNW 12.7 mph 19.6 mph N/A   Overcast
6:39 PM 46.0 °F 40.6 °F 39.4 °F 78% 29.98 in 10.0 mi West 11.5 mph 17.3 mph N/A   Overcast
6:57 PM 45.9 °F 40.8 °F 39.4 °F 78% 29.98 in 10.0 mi WNW 10.4 mph 16.1 mph N/A   Overcast
7:15 PM 45.5 °F 40.3 °F 39.6 °F 80% 29.99 in 10.0 mi West 10.4 mph 16.1 mph N/A   Overcast
7:16 PM 45.5 °F 40.3 °F 39.6 °F 80% 29.99 in 10.0 mi West 10.4 mph 16.1 mph N/A   Overcast
7:35 PM 45.5 °F 39.6 °F 39.6 °F 80% 30.00 in 10.0 mi West 12.7 mph - N/A   Overcast
7:40 PM 45.5 °F 39.6 °F 39.6 °F 80% 30.00 in 10.0 mi WNW 12.7 mph - N/A   Overcast
7:58 PM 45.7 °F 41.5 °F 39.6 °F 79% 30.00 in 10.0 mi WNW 8.1 mph 17.3 mph N/A   Overcast
8:15 PM 45.5 °F 41.3 °F 39.0 °F 78% 30.01 in 10.0 mi NW 8.1 mph - N/A   Overcast
8:35 PM 45.7 °F 40.6 °F 37.9 °F 74% 30.01 in 10.0 mi NW 10.4 mph - N/A   Overcast
8:36 PM 45.9 °F 40.4 °F 37.8 °F 73% 30.01 in 10.0 mi NW 11.5 mph - N/A   Overcast
8:58 PM 45.7 °F 40.6 °F 36.7 °F 71% 30.02 in 10.0 mi NW 10.4 mph 21.9 mph N/A   Overcast
9:15 PM 45.5 °F 39.9 °F 36.7 °F 71% 30.03 in 10.0 mi NW 11.5 mph 19.6 mph N/A   Overcast
9:35 PM 45.0 °F 40.6 °F 36.3 °F 72% 30.04 in 10.0 mi NW 8.1 mph - N/A   Overcast
9:36 PM 45.0 °F 40.6 °F 36.5 °F 72% 30.04 in 10.0 mi NW 8.1 mph - N/A   Overcast
9:58 PM 44.6 °F 39.2 °F 36.5 °F 73% 30.05 in 10.0 mi NW 10.4 mph 16.1 mph N/A   Overcast
10:16 PM 44.2 °F 38.8 °F 36.7 °F 75% 30.06 in 10.0 mi NNW 10.4 mph 17.3 mph N/A   Overcast
10:35 PM 44.1 °F 38.1 °F 36.5 °F 75% 30.07 in 10.0 mi NNW 11.5 mph 18.4 mph N/A   Overcast
10:36 PM 44.1 °F 38.1 °F 36.5 °F 75% 30.07 in 10.0 mi NW 11.5 mph 18.4 mph N/A   Overcast
10:55 PM 44.2 °F 38.4 °F 35.4 °F 71% 30.07 in 10.0 mi NNW 11.5 mph 18.4 mph N/A   Overcast
10:56 PM 44.2 °F 39.2 °F 35.4 °F 71% 30.07 in 10.0 mi NNW 9.2 mph 18.4 mph N/A   Overcast
11:17 PM 43.9 °F 38.3 °F 35.6 °F 73% 30.07 in 10.0 mi NNW 10.4 mph - N/A   Overcast
11:36 PM 43.9 °F 39.3 °F 36.0 °F 74% 30.07 in 10.0 mi NNW 8.1 mph - N/A   Overcast
11:55 PM 43.7 °F 38.6 °F 36.5 °F 76% 30.07 in 10.0 mi NW 9.2 mph - N/A   Overcast